Temperature
0 -1 -1 -3 -4 -4 -5 -6 -7 -8 -7 -7 -7 -7 -8 -8 -8 -8 -8 -8 -8 -7 -7 -7 -7 -6 -6 -6 -6 -5 -5 -5 -4 -4 -4 -3 -2 -2
-0 -1 -2 -3 -4 -5 -6 -6 -7 -8 -8 -8 -8 -7 -8 -8 -8 -8 -8 -8 -8 -8 -8 -8 -7 -7 -7 -7 -6 -6 -6 -5 -5 -5 -4 -4 -3 -3
-1 -2 -3 -4 -5 -6 -6 -7 -7 -8 -9 -8 -8 -8 -8 -8 -8 -8 -9 -9 -9 -9 -8 -8 -8 -8 -7 -7 -7 -6 -6 -6 -6 -5 -5 -4 -4 -3
-2 -3 -4 -5 -6 -6 -7 -7 -8 -8 -9 -9 -9 -9 -8 -8 -9 -9 -9 -9 -9 -9 -9 -9 -8 -8 -8 -8 -7 -7 -7 -6 -6 -6 -5 -5 -5 -4
-3 -4 -5 -6 -6 -7 -7 -8 -9 -9 -9 -9 -9 -9 -9 -9 -9 -9 -9 -9 -10 -10 -9 -9 -9 -9 -8 -8 -8 -7 -7 -7 -7 -7 -6 -6 -5 -5
-4 -5 -6 -6 -7 -8 -8 -9 -9 -9 -9 -9 -9 -9 -9 -9 -9 -10 -10 -10 -10 -10 -10 -9 -9 -9 -9 -9 -8 -8 -8 -8 -8 -7 -7 -7 -6 -6
-5 -6 -6 -7 -8 -9 -9 -9 -9 -9 -9 -9 -9 -9 -9 -10 -10 -10 -10 -10 -10 -10 -10 -10 -10 -10 -9 -9 -9 -8 -9 -9 -8 -8 -7 -7 -7 -6
-6 -6 -7 -7 -8 -9 -9 -9 -9 -9 -9 -9 -9 -10 -10 -10 -10 -10 -10 -10 -10 -10 -10 -10 -10 -10 -9 -9 -8 -9 -8 -8 -8 -7 -7 -7 -6 -6
-7 -7 -8 -8 -8 -9 -9 -9 -9 -9 -9 -10 -10 -10 -10 -10 -10 -10 -10 -10 -11 -10 -11 -10 -10 -10 -9 -8 -8 -8 -8 -8 -8 -7 -7 -7 -6 -6
-7 -8 -8 -8 -9 -9 -9 -9 -9 -9 -10 -10 -10 -10 -10 -10 -10 -10 -11 -11 -11 -10 -11 -11 -10 -9 -9 -7 -7 -7 -8 -8 -7 -7 -7 -6 -6 -6
-8 -8 -9 -9 -10 -9 -9 -9 -10 -9 -10 -10 -10 -10 -10 -10 -10 -11 -11 -12 -12 -11 -9 -11 -9 -10 -9 -7 -6 -7 -7 -7 -7 -7 -6 -6 -6 -6
-8 -9 -9 -10 -10 -9 -9 -10 -10 -10 -10 -10 -10 -9 -8 -8 -9 -10 -11 -12 -12 -12 -9 -11 -11 -11 -10 -8 -6 -5 -5 -5 -5 -5 -6 -6 -6 -6
-9 -9 -9 -10 -10 -10 -10 -10 -10 -10 -10 -10 -9 -8 -8 -8 -8 -9 -9 -11 -12 -12 -9 -11 -11 -11 -11 -10 -7 -4 -4 -5 -4 -4 -4 -4 -5 -5
-10 -10 -10 -10 -10 -10 -10 -10 -10 -11 -10 -9 -10 -9 -9 -8 -8 -8 -8 -8 -8 -9 -8 -9 -10 -10 -10 -10 -9 -5 -4 -4 -4 -4 -4 -3 -4 -4
-10 -10 -10 -10 -10 -9 -9 -10 -10 -10 -10 -11 -11 -9 -9 -8 -8 -8 -7 -7 -6 -6 -7 -8 -9 -9 -9 -9 -9 -6 -5 -4 -3 -3 -3 -3 -3 -4
-10 -10 -10 -9 -9 -9 -9 -9 -9 -10 -11 -11 -10 -9 -8 -8 -7 -8 -8 -8 -7 -6 -6 -7 -7 -8 -8 -6 -6 -6 -5 -5 -4 -3 -3 -2 -3 -3
-11 -10 -9 -9 -9 -9 -9 -9 -9 -9 -9 -9 -9 -9 -8 -8 -7 -7 -8 -8 -9 -8 -7 -6 -6 -6 -6 -5 -5 -5 -5 -5 -4 -3 -2 -2 -2 -3
-10 -10 -10 -10 -10 -10 -10 -9 -9 -9 -9 -9 -9 -9 -9 -8 -8 -7 -8 -8 -9 -8 -8 -7 -7 -6 -5 -4 -4 -5 -5 -4 -3 -2 -2 -2 -2 -2
-10 -10 -10 -10 -10 -10 -10 -10 -9 -9 -8 -8 -8 -8 -8 -8 -8 -8 -8 -8 -8 -8 -8 -7 -7 -8 -8 -7 -4 -5 -5 -4 -3 -3 -2 -2 -1 -1
-10 -10 -10 -10 -10 -10 -10 -9 -9 -8 -8 -8 -8 -8 -8 -8 -8 -8 -8 -8 -8 -8 -7 -7 -7 -7 -7 -7 -6 -5 -5 -4 -4 -3 -2 -2 -1 -1
-10 -10 -10 -10 -10 -10 -9 -9 -8 -8 -8 -8 -8 -7 -8 -8 -7 -8 -8 -8 -8 -8 -8 -7 -7 -6 -6 -5 -5 -5 -5 -4 -4 -4 -3 -2 -2 -2
-10 -10 -10 -10 -10 -9 -9 -8 -8 -7 -7 -7 -7 -7 -7 -7 -7 -7 -7 -8 -8 -8 -8 -7 -6 -6 -5 -5 -6 -5 -5 -4 -4 -4 -4 -3 -3 -2
-10 -10 -10 -9 -9 -9 -8 -8 -7 -7 -7 -7 -7 -7 -7 -7 -7 -7 -7 -7 -7 -7 -7 -7 -6 -6 -6 -5 -5 -5 -5 -5 -5 -4 -4 -4 -3 -2
Wind_Speed
4 5 5 5 5 6 6 6 7 14 17 7 4 4 8 14 20 21 21 30 35 36 37 37 37 37 37 37 37 36 36 36 36 35 35 36 36 36
4 6 6 6 6 6 7 7 8 12 17 10 12 11 10 15 24 22 22 32 33 34 36 37 37 38 38 38 37 36 36 35 35 36 36 36 36 37
6 7 8 8 7 7 7 8 9 10 17 19 14 12 13 14 15 15 19 17 20 31 35 37 38 37 37 37 36 36 35 35 35 35 36 36 36 37
8 7 8 8 8 8 8 9 10 10 14 21 19 15 15 14 15 14 15 16 13 29 34 35 35 36 36 36 36 36 35 35 35 35 35 36 36 37
7 8 8 9 10 9 10 10 10 12 11 16 19 16 14 13 14 15 15 13 16 22 28 30 32 34 35 36 36 36 36 35 35 35 35 35 35 36
7 7 8 9 11 11 11 10 10 12 12 15 16 16 15 12 12 15 17 12 14 16 22 24 29 32 34 35 35 35 35 35 35 35 35 35 35 36
7 8 9 14 17 15 14 12 13 13 14 15 16 16 16 15 15 15 19 18 15 12 14 14 15 16 18 26 30 32 34 34 34 34 34 35 35 35
9 9 10 13 17 23 26 25 23 19 17 15 16 17 19 17 16 17 18 19 18 8 11 18 15 17 16 14 26 34 35 35 35 35 35 35 35 35
10 10 12 13 18 13 20 25 21 24 24 18 17 18 19 18 19 21 18 19 20 17 17 20 16 18 16 19 32 34 35 35 35 35 35 35 35 35
10 11 12 12 14 19 17 15 12 12 18 15 13 16 17 17 17 18 18 19 18 14 13 18 19 18 18 17 29 33 33 33 33 33 33 34 34 34
10 10 12 12 22 27 19 16 15 13 19 23 24 24 28 28 22 15 14 15 18 17 10 9 12 17 18 17 18 26 28 30 32 33 34 34 33 33
8 9 16 20 26 28 17 14 16 17 16 16 17 20 17 18 22 13 12 14 15 11 5 6 11 13 10 8 9 14 18 26 31 31 32 32 31 21
11 9 10 24 27 28 23 13 19 21 15 14 14 14 13 12 12 12 12 12 14 14 13 11 13 12 10 12 15 16 14 14 16 20 24 28 28 23
12 11 14 26 27 26 19 20 25 21 12 12 13 13 13 13 13 15 15 14 15 18 19 18 14 16 16 18 15 13 14 15 15 15 14 19 20 23
12 20 24 26 23 17 19 24 19 12 12 12 13 13 12 12 14 13 14 13 16 15 15 16 16 15 15 16 13 15 17 15 12 12 12 10 9 8
12 16 21 21 18 17 17 14 11 11 13 12 13 13 12 12 12 11 13 14 13 14 12 12 13 14 14 16 15 16 16 11 14 16 12 7 5 5
15 8 9 11 11 11 11 11 11 12 12 12 12 13 14 13 13 11 11 12 12 14 16 14 11 11 13 14 12 13 15 15 15 14 10 6 3 4
14 10 11 11 12 13 13 14 13 12 12 12 13 12 13 13 14 13 11 12 13 14 14 14 15 13 9 6 8 10 12 13 14 13 9 6 5 2
9 9 11 11 12 12 12 13 14 14 12 12 12 13 12 12 13 13 13 12 13 13 13 12 12 9 12 12 8 10 13 14 14 11 10 7 6 5
8 10 11 12 12 13 13 13 14 14 13 12 13 12 12 12 13 13 12 13 13 13 13 11 10 10 9 9 7 9 18 16 13 13 12 8 8 8
10 11 11 12 12 13 13 13 13 14 14 13 13 13 12 12 12 12 12 17 14 11 12 12 12 17 10 7 7 9 11 19 19 14 14 10 9 11
11 12 12 13 13 13 13 13 13 14 14 13 13 13 12 12 13 14 13 12 11 10 10 9 11 9 5 6 8 10 12 14 16 21 24 23 11 9
12 12 13 13 13 12 12 13 15 14 14 13 13 13 13 12 12 11 12 11 9 9 8 8 7 6 5 5 7 8 12 14 12 13 14 24 27 26
Wind_Direction
273 265 256 256 254 257 259 268 291 306 310 293 276 265 277 286 290 294 289 294 297 296 297 297 296 294 292 291 289 286 284 282 279 276 273 270 267 265
270 266 265 262 261 260 259 260 260 280 293 294 300 297 289 296 298 297 290 294 295 295 294 294 294 293 292 290 288 286 283 281 279 276 273 270 267 265
291 283 277 276 272 267 264 264 265 270 286 296 297 298 293 292 295 287 285 282 285 291 294 294 293 292 291 290 288 287 284 282 279 277 274 271 268 266
294 292 288 291 280 277 274 272 273 271 282 295 301 302 296 294 294 291 298 296 289 293 294 294 294 293 292 290 288 286 284 282 280 277 274 271 269 266
291 291 290 289 288 285 280 280 280 285 284 292 297 299 298 298 299 299 295 290 292 295 295 295 293 292 291 290 289 288 286 284 281 278 275 272 269 266
291 288 287 286 286 287 291 284 291 295 292 292 295 300 302 301 302 307 306 298 296 296 293 292 292 293 291 291 289 287 285 283 280 277 273 270 266 263
293 287 287 300 305 306 308 308 305 300 300 302 304 306 307 311 310 308 305 305 297 288 291 292 291 288 287 286 285 284 282 280 278 275 271 268 264 260
298 295 294 297 302 312 311 307 305 306 308 307 308 306 306 306 306 306 306 306 305 299 297 300 295 291 288 283 284 285 283 282 280 276 273 268 264 260
293 297 304 307 312 298 298 304 305 305 307 305 302 300 301 304 305 305 304 302 300 303 305 299 298 294 291 287 289 287 286 284 282 278 274 269 265 260
287 289 293 295 301 307 307 309 303 300 300 301 293 294 298 301 302 304 303 301 297 295 293 295 298 296 296 290 289 285 285 285 283 280 276 272 266 261
291 292 302 302 307 314 318 314 311 308 310 307 305 306 307 308 309 308 307 308 305 304 295 286 292 302 297 288 284 287 288 288 286 283 279 274 269 263
298 293 309 314 314 320 321 317 316 313 313 315 313 309 304 303 307 306 303 302 304 305 291 294 298 313 306 280 279 291 293 291 289 286 282 276 271 263
314 312 307 316 320 323 325 319 311 316 320 317 312 308 307 306 307 305 299 295 295 291 293 302 297 298 289 297 303 298 292 291 293 289 284 278 269 259
315 313 314 320 325 325 324 317 320 325 319 312 310 311 312 311 310 307 301 292 281 281 285 288 287 292 296 296 299 299 301 299 294 289 283 278 271 261
312 316 320 324 326 324 318 320 325 320 312 311 311 310 307 302 304 306 304 300 294 285 279 276 281 289 290 291 291 296 306 307 299 297 293 281 265 252
315 317 324 324 322 319 320 319 315 310 313 310 308 306 307 307 308 309 311 315 313 309 297 282 281 290 297 293 291 295 304 305 311 313 307 291 261 231
326 324 323 322 323 322 319 317 317 316 315 311 309 310 310 311 310 313 309 313 310 312 318 320 312 300 288 284 290 298 310 317 319 323 322 316 285 235
333 325 321 321 320 319 319 318 317 316 315 313 309 307 307 308 309 311 311 311 312 313 314 319 326 329 327 299 263 300 321 328 331 333 338 336 341 309
330 319 317 317 315 314 312 311 311 311 311 308 306 305 306 305 306 308 311 313 313 312 313 317 324 329 331 330 315 318 333 339 343 348 350 351 352 352
321 317 315 313 312 310 309 309 309 310 309 308 306 304 303 304 305 306 308 309 312 314 317 321 325 327 321 309 306 314 333 350 355 357 356 356 7 9
319 316 312 310 308 307 306 305 305 305 305 305 304 302 303 303 302 302 304 308 312 313 318 320 316 320 312 311 322 338 342 350 1 10 7 7 12 22
316 313 310 306 306 305 304 305 305 304 304 303 302 302 301 299 298 300 302 305 307 309 312 311 316 326 335 344 345 343 349 353 359 11 25 32 33 26
313 310 307 306 304 303 303 302 302 302 301 300 300 299 299 299 299 298 298 300 305 311 318 321 330 337 335 338 347 351 356 359 3 12 21 23 34 41
Height
1469 1466 1463 1459 1456 1452 1448 1443 1436 1420 1406 1403 1402 1399 1397 1393 1389 1385 1380 1375 1370 1364 1359 1354 1349 1345 1341 1337 1334 1330 1328 1326 1324 1323 1322 1322 1322 1322
1465 1461 1457 1453 1450 1446 1442 1438 1433 1424 1409 1398 1395 1391 1388 1385 1381 1376 1371 1365 1360 1354 1349 1343 1338 1333 1328 1324 1321 1317 1315 1312 1310 1309 1308 1307 1307 1308
1460 1455 1451 1447 1443 1439 1434 1430 1425 1419 1407 1393 1390 1385 1380 1374 1369 1365 1360 1355 1348 1343 1338 1332 1327 1321 1316 1312 1308 1304 1301 1299 1297 1295 1294 1293 1293 1294
1454 1449 1445 1440 1436 1431 1426 1421 1417 1412 1404 1392 1382 1377 1372 1367 1361 1355 1350 1345 1339 1333 1327 1321 1315 1310 1304 1300 1295 1292 1288 1286 1283 1281 1280 1279 1279 1279
1448 1443 1438 1433 1428 1424 1419 1414 1409 1404 1398 1390 1378 1371 1365 1360 1353 1346 1341 1334 1328 1322 1316 1310 1304 1298 1293 1288 1283 1279 1275 1271 1269 1267 1265 1265 1264 1265
1442 1437 1432 1427 1421 1416 1412 1407 1402 1396 1390 1382 1373 1366 1359 1353 1347 1338 1329 1323 1317 1312 1305 1299 1293 1287 1280 1274 1269 1264 1260 1256 1254 1252 1251 1250 1250 1250
1436 1432 1426 1421 1417 1412 1408 1401 1395 1389 1382 1375 1367 1360 1352 1346 1340 1332 1323 1313 1306 1303 1294 1287 1281 1273 1266 1260 1255 1249 1245 1242 1240 1238 1236 1235 1235 1235
1429 1425 1420 1415 1410 1406 1400 1395 1391 1384 1377 1370 1361 1354 1346 1340 1333 1326 1318 1308 1296 1293 1287 1276 1272 1262 1255 1249 1242 1237 1233 1229 1226 1224 1222 1220 1220 1220
1424 1418 1413 1409 1404 1397 1391 1387 1383 1378 1373 1366 1356 1348 1341 1334 1328 1319 1312 1305 1295 1287 1280 1266 1261 1252 1245 1237 1232 1226 1221 1216 1212 1209 1207 1205 1204 1204
1419 1413 1407 1401 1396 1391 1385 1379 1373 1368 1363 1357 1350 1343 1336 1329 1323 1316 1307 1297 1288 1281 1276 1263 1251 1243 1233 1225 1219 1214 1209 1204 1199 1195 1193 1191 1189 1189
1413 1408 1402 1396 1390 1386 1379 1372 1364 1358 1353 1348 1343 1337 1330 1323 1317 1309 1300 1292 1280 1271 1267 1259 1245 1234 1222 1213 1208 1203 1198 1193 1187 1182 1178 1175 1173 1173
1407 1402 1397 1391 1385 1380 1373 1365 1357 1350 1344 1338 1333 1327 1321 1315 1310 1304 1296 1288 1278 1266 1258 1253 1242 1234 1216 1202 1200 1194 1187 1181 1175 1169 1163 1160 1158 1158
1401 1395 1390 1385 1380 1374 1367 1360 1353 1347 1340 1333 1325 1319 1313 1308 1303 1297 1291 1284 1275 1265 1257 1251 1240 1232 1226 1206 1192 1187 1180 1172 1164 1157 1151 1147 1144 1143
1396 1389 1384 1379 1373 1366 1360 1354 1349 1342 1335 1327 1320 1314 1308 1301 1296 1290 1284 1278 1271 1262 1253 1247 1238 1229 1220 1208 1193 1180 1173 1165 1157 1149 1142 1136 1132 1130
1391 1385 1379 1373 1366 1360 1354 1349 1343 1336 1329 1323 1316 1310 1304 1297 1290 1283 1277 1270 1264 1257 1249 1242 1234 1226 1217 1207 1194 1181 1169 1158 1151 1143 1136 1129 1124 1121
1385 1379 1373 1367 1361 1356 1350 1344 1338 1333 1327 1320 1313 1306 1299 1292 1286 1279 1271 1263 1254 1247 1243 1237 1229 1221 1212 1202 1193 1181 1171 1161 1149 1140 1132 1125 1120 1117
1380 1373 1367 1361 1355 1350 1344 1339 1334 1328 1322 1316 1309 1302 1295 1288 1282 1275 1268 1260 1253 1244 1235 1229 1224 1217 1209 1201 1190 1181 1170 1160 1150 1140 1131 1124 1119 1116
1376 1370 1363 1358 1352 1346 1340 1334 1329 1324 1318 1312 1305 1299 1292 1285 1278 1272 1266 1259 1252 1244 1236 1229 1221 1212 1205 1197 1192 1182 1172 1162 1152 1142 1134 1127 1121 1117
1372 1366 1361 1355 1349 1344 1338 1332 1326 1320 1314 1308 1302 1295 1289 1282 1275 1269 1263 1257 1250 1244 1237 1230 1223 1216 1208 1200 1192 1186 1177 1166 1156 1146 1139 1132 1126 1121
1369 1363 1357 1352 1346 1341 1335 1329 1322 1316 1310 1304 1298 1292 1286 1279 1273 1267 1261 1255 1249 1243 1236 1230 1225 1218 1212 1206 1197 1189 1181 1172 1162 1153 1145 1138 1133 1128
1364 1359 1354 1349 1343 1337 1331 1325 1319 1312 1306 1300 1295 1289 1283 1277 1271 1265 1260 1254 1249 1243 1237 1231 1226 1221 1215 1208 1201 1194 1186 1178 1171 1163 1153 1145 1140 1136
1361 1356 1351 1346 1340 1334 1328 1321 1315 1309 1303 1297 1291 1285 1280 1274 1269 1263 1258 1253 1248 1243 1238 1233 1227 1222 1217 1211 1205 1199 1192 1184 1177 1170 1164 1158 1153 1148
1358 1352 1347 1342 1336 1330 1324 1318 1312 1306 1300 1294 1288 1282 1277 1271 1267 1262 1257 1252 1248 1243 1239 1234 1229 1224 1220 1215 1210 1204 1198 1191 1184 1178 1172 1168 1163 1159